TimePST,TemperatureF,Dew PointF,Humidity,Sea Level PressureIn,VisibilityMPH,Wind Direction,Wind SpeedMPH,Gust SpeedMPH,PrecipitationIn,Events,Conditions,WindDirDegrees,DateUTC
12:34 AM,44.6,42.8,93,30.55,9.0,NW,6.9,-,N/A,,Partly Cloudy,320,2013-02-15 08:34:00
12:53 AM,44.1,43.0,96,30.56,9.0,North,3.5,-,N/A,,Clear,350,2013-02-15 08:53:00
1:37 AM,44.6,42.8,93,30.54,9.0,Calm,Calm,-,N/A,,Partly Cloudy,0,2013-02-15 09:37:00
1:53 AM,43.0,42.1,97,30.55,6.0,ENE,3.5,-,N/A,,Mostly Cloudy,60,2013-02-15 09:53:00
2:10 AM,42.8,42.8,100,30.54,2.5,Calm,Calm,-,N/A,,Overcast,0,2013-02-15 10:10:00
2:17 AM,42.8,42.8,100,30.54,0.8,Calm,Calm,-,N/A,,Overcast,0,2013-02-15 10:17:00
2:36 AM,42.8,42.8,100,30.53,2.0,Calm,Calm,-,N/A,,Overcast,0,2013-02-15 10:36:00
2:45 AM,42.8,42.8,100,30.53,5.0,Calm,Calm,-,N/A,,Overcast,0,2013-02-15 10:45:00
2:53 AM,42.1,42.1,100,30.54,5.0,Calm,Calm,-,N/A,,Overcast,0,2013-02-15 10:53:00
3:51 AM,42.8,42.8,100,30.50,1.5,NW,4.6,-,N/A,,Overcast,320,2013-02-15 11:51:00
3:53 AM,43.0,43.0,100,30.52,1.0,NNW,3.5,-,N/A,,Overcast,340,2013-02-15 11:53:00
4:01 AM,42.8,42.8,100,30.50,0.5,NW,5.8,-,N/A,Fog,Fog,320,2013-02-15 12:01:00
4:45 AM,42.8,42.8,100,30.50,2.0,Calm,Calm,-,N/A,,Overcast,0,2013-02-15 12:45:00
4:53 AM,42.1,42.1,100,30.51,2.5,Calm,Calm,-,N/A,,Overcast,0,2013-02-15 12:53:00
5:00 AM,41.0,41.0,100,30.50,0.8,Calm,Calm,-,N/A,,Mist,0,2013-02-15 13:00:00
5:23 AM,41.0,41.0,100,30.50,1.0,NNE,3.5,-,N/A,,Mist,20,2013-02-15 13:23:00
5:51 AM,41.0,41.0,100,30.49,0.8,NNE,3.5,-,N/A,,Mist,30,2013-02-15 13:51:00
5:53 AM,41.0,41.0,100,30.51,0.8,NNE,3.5,-,N/A,,Mist,30,2013-02-15 13:53:00
6:44 AM,39.2,39.2,100,30.48,1.8,Variable,3.5,-,N/A,,Overcast,0,2013-02-15 14:44:00
6:51 AM,39.2,39.2,100,30.48,3.0,Variable,3.5,-,N/A,,Overcast,0,2013-02-15 14:51:00
6:53 AM,39.0,39.0,100,30.50,2.5,NNW,5.8,-,N/A,,Overcast,330,2013-02-15 14:53:00
7:53 AM,39.0,39.0,100,30.49,2.0,NNW,4.6,-,N/A,,Overcast,340,2013-02-15 15:53:00
7:55 AM,39.2,39.2,100,30.48,1.2,NNW,4.6,-,N/A,,Overcast,340,2013-02-15 15:55:00
8:53 AM,39.9,39.9,100,30.49,1.5,Calm,Calm,-,N/A,,Overcast,0,2013-02-15 16:53:00
9:53 AM,39.0,39.0,100,30.47,1.5,Calm,Calm,-,N/A,,Overcast,0,2013-02-15 17:53:00
10:53 AM,41.0,41.0,100,30.45,3.0,WNW,8.1,-,N/A,,Overcast,300,2013-02-15 18:53:00
11:53 AM,43.0,41.0,93,30.43,10.0,Calm,Calm,-,N/A,,Overcast,0,2013-02-15 19:53:00
12:08 PM,44.6,42.8,93,30.40,10.0,NW,3.5,-,N/A,,Scattered Clouds,310,2013-02-15 20:08:00
12:53 PM,46.9,42.1,83,30.39,10.0,NW,3.5,-,N/A,,Clear,310,2013-02-15 20:53:00
1:53 PM,50.0,42.1,74,30.35,10.0,NW,5.8,-,N/A,,Clear,320,2013-02-15 21:53:00
2:53 PM,53.1,43.0,69,30.31,10.0,NW,6.9,-,N/A,,Clear,320,2013-02-15 22:53:00
3:53 PM,55.0,42.1,62,30.29,10.0,NW,9.2,-,N/A,,Clear,310,2013-02-15 23:53:00
4:53 PM,53.1,43.0,69,30.26,10.0,WNW,5.8,-,N/A,,Clear,300,2013-02-16 00:53:00
5:53 PM,50.0,42.1,74,30.25,10.0,WNW,6.9,-,N/A,,Clear,300,2013-02-16 01:53:00
6:53 PM,46.9,43.0,86,30.24,10.0,NW,10.4,-,N/A,,Clear,310,2013-02-16 02:53:00
7:53 PM,45.0,43.0,93,30.24,10.0,NW,8.1,-,N/A,,Clear,310,2013-02-16 03:53:00
8:53 PM,44.1,42.1,93,30.25,10.0,NW,4.6,-,N/A,,Clear,320,2013-02-16 04:53:00
9:53 PM,43.0,41.0,93,30.24,9.0,Calm,Calm,-,N/A,,Clear,0,2013-02-16 05:53:00
10:53 PM,41.0,39.9,96,30.22,10.0,Calm,Calm,-,N/A,,Clear,0,2013-02-16 06:53:00
11:53 PM,39.9,39.0,97,30.20,9.0,Calm,Calm,-,N/A,,Clear,0,2013-02-16 07:53:00